[[{"header":{"parameterUnit":"m.s-1","parameterCategory":1,"la1":30.2991,"la2":30.254,"lo1":-89.0895,"lo2":-89.0444,"dy":0.0017,"dx":0.0017,"nx":28,"ny":28,"refTime":"2023-09-19T21:00:00:Z","depth":0,"parameterNumber":2,"parameterNumberName":"U-component_of_WINDS"},"data":[0,0,0,0,0,0,0,0,0,0,0,0,0,0,0,0,0,0,0,0,0,0,0,0,0,0,0,0,0,0,0,0,0,0,0,0,0,0,0,0,0,0,0,0,0,0,0,0,0,0,0,0,0,0,0,0,0,0,-4.0023,-4.0024,0,-4.0144,-4.0145,-4.0147,-4.0112,-4.011,-4.0107,-4.0105,-4.0224,-4.0229,-4.0235,0,0,0,0,0,0,0,0,0,0,0,0,0,-3.9758,-3.9763,-4.0023,-4.0025,-4.0026,-4.0144,-4.0145,-4.0147,-4.0112,-4.0109,-4.0106,-4.0104,-4.0222,-4.0229,-4.0235,0,0,0,0,0,0,0,0,0,0,0,0,0,-3.9875,-3.9764,-4.0023,-4.0023,-4.0024,-4.0143,-4.0146,-4.0148,-4.0113,-4.0109,-4.0106,-4.0102,-4.022,-4.0228,-4.0236,-4.0361,0,0,-4.0261,-4.0265,0,0,0,0,0,0,0,0,-3.9868,-3.9885,-4.0021,-4.0023,-4.0025,-4.0109,-4.0096,-4.0219,-4.0114,-4.0079,-4.0105,-4.01,-4.0189,-4.0199,-4.023,-4.0367,-4.0372,-4.0262,-4.0267,-4.0271,-4.0273,0,0,0,0,0,0,0,-3.986,-3.9879,-4.0071,-4.0023,-4.0026,-4.0016,-4.0028,-4.0119,-4.0153,-4.0082,-4.008,-4.0095,-4.0189,-4.0222,-4.0232,-4.0374,-4.0262,-4.0269,-4.0274,-4.0277,-4.0617,-4.0621,0,0,0,0,0,0,-3.9852,-3.9873,-4.0067,-4.0074,-3.9936,-4.0023,-4.0038,-4.0086,-4.0152,-4.0159,-4.0098,-4.0093,-4.021,-4.0223,-4.0236,-4.0385,-4.0271,-4.0278,-4.0283,-4.0613,-4.0618,-4.0622,0,0,0,0,0,0,-3.9846,-3.9869,-4.0062,-3.9973,-3.9997,-4.0032,-4.0086,-4.009,-4.0123,-4.0164,-4.0169,-4.0126,-4.0207,-4.0225,-4.033,-4.0389,-4.0282,-4.0289,-4.0608,-4.0614,-4.062,-4.0684,0,0,0,0,0,0,-3.9839,-3.9867,-3.9916,-3.9975,-4.0002,-4.0155,-4.009,-4.0095,-4.0138,-4.0133,-4.0192,-4.0198,-4.0206,-4.0318,-4.0338,-4.0398,-4.0296,-4.0603,-4.0611,-4.0618,-4.0677,-4.0692,-4.0704,0,0,0,0,0,-3.9829,-3.9929,-3.9919,-3.9942,-4.0064,-4.0159,-4.0174,-4.0182,-4.0143,-4.0191,-4.0218,-4.0196,-4.038,-4.0329,-4.0352,-4.0415,-4.0599,-4.0609,-4.0618,-4.0671,-4.0689,-4.0704,0,0,0,0,0,0,-3.9875,-3.9936,-3.9926,-4.0048,-4.0099,-4.0153,-4.0214,-4.0202,-4.0263,-4.0255,-4.0262,-4.0275,-4.0383,-4.041,-4.0352,-4.0538,-4.0483,-4.0498,-4.0516,-4.0534,-4.0547,-4.0537,-4.0303,0,0,0,0,0,-3.99,-3.9973,-4.0022,-4.0125,-4.0151,-4.0178,-4.022,-4.0222,-4.0274,-4.0295,-4.0329,-4.0379,-4.0448,-4.0493,-4.0558,-4.0682,-4.0693,-4.0736,-4.075,-4.0761,-4.0772,-4.0837,-4.0856,-4.0652,-4.0652,-4.0652,0,0,-3.995,-3.9993,-4.0038,-4.0135,-4.0174,-4.0248,-4.0196,-4.0277,-4.0331,-4.0307,-4.0408,-4.0435,-4.0491,-4.0605,-4.0657,-4.0631,-4.0831,-4.0773,-4.0781,-4.0786,-4.0848,-4.0867,-4.0884,-4.0659,-4.0658,-4.0657,0,0,-4.008,-4.0121,-4.021,-4.0251,-4.0312,-4.0329,-4.0351,-4.0408,-4.0424,-4.0527,-4.0509,-4.0574,-4.0693,-4.0733,-4.0769,-4.0915,-4.0896,-4.0937,-4.1007,-4.107,-4.1086,-4.11,-4.1149,-4.1167,-4.0948,-4.0948,-4.0948,0,-4.0134,-4.0246,-4.0257,-4.0339,-4.0381,-4.0364,-4.0453,-4.0492,-4.0571,-4.0599,-4.057,-4.0718,-4.0755,-4.0877,-4.0913,-4.0944,-4.0967,-4.0928,-4.1083,-4.1098,-4.1111,-4.1158,-4.1177,-4.0952,-4.0952,-4.0952,-4.0951,0,-4.0309,-4.0387,-4.0452,-4.0529,-4.0579,-4.0664,-4.0686,-4.0735,-4.0733,-4.0754,-4.0857,-4.0901,-4.0975,-4.1005,-4.1004,-4.1127,-4.1108,-4.1082,-4.1026,-4.1134,-4.1178,-4.1197,-4.0958,-4.0957,-4.0956,-4.0955,0,0,-4.0468,-4.0551,-4.0574,-4.0609,-4.0675,-4.0735,-4.0819,-4.0893,-4.0933,-4.0989,-4.1057,-4.1159,-4.1134,-4.1175,-4.1179,-4.1235,-4.1345,-4.1201,-4.1202,-4.1223,-4.148,-4.1498,-4.1518,-4.1335,-4.1338,-4.1341,-4.1474,0,-4.0601,-4.075,-4.0762,-4.0895,-4.0966,-4.0952,-4.1025,-4.1072,-4.1094,-4.1156,-4.118,-4.1251,-4.1214,-4.1239,-4.1294,-4.132,-4.1396,-4.1311,-4.1396,-4.1399,-4.1379,-4.1542,-4.1561,-4.1685,-4.1492,-4.1495,-4.1497,0,-4.0775,-4.0837,-4.0977,-4.1033,-4.1063,-4.1129,-4.1196,-4.1257,-4.131,-4.1322,-4.1369,-4.1365,-4.1449,-4.1394,-4.1509,-4.1451,-4.1487,-4.1505,-4.151,-4.1515,-4.1452,-4.1548,-4.1725,-4.1742,-4.1525,-4.1523,-4.1521,0,-4.0873,-4.0992,-4.109,-4.1121,-4.1189,-4.1235,-4.1265,-4.1315,-4.1358,-4.1418,-4.1445,-4.1513,-4.155,-4.1602,-4.1616,-4.1575,-4.173,-4.1676,-4.174,-4.1739,-4.177,-4.1767,-4.1951,-4.1799,-4.1799,-4.1799,-4.1798,0,-4.1018,-4.1104,-4.1135,-4.1196,-4.1291,-4.1304,-4.1397,-4.1425,-4.147,-4.1534,-4.1527,-4.1587,-4.1603,-4.1666,-4.1678,-4.177,-4.1787,-4.1797,-4.1799,-4.1796,-4.1794,-4.1817,-4.1808,-4.1804,-4.1803,-4.1802,-4.1801,0,-4.1142,-4.1167,-4.1273,-4.133,-4.1346,-4.1414,-4.1461,-4.1518,-4.154,-4.1621,-4.1641,-4.1674,-4.1747,-4.1768,-4.1856,-4.1863,-4.1971,-4.1966,-4.1953,-4.1952,-4.2013,-4.2006,-4.2215,-4.2242,-4.2076,-4.2077,-4.2079,0,-4.1232,-4.1297,-4.1361,-4.1404,-4.1437,-4.1507,-4.1551,-4.1566,-4.1612,-4.1678,-4.1727,-4.18,-4.1859,-4.1977,-4.2008,-4.2075,-4.2069,-4.2138,-4.2079,-4.2074,-4.2066,-4.2061,-4.2066,-4.2148,-4.215,-4.2151,-4.2152,0,-4.1386,-4.1395,-4.146,-4.1529,-4.1582,-4.1637,-4.1689,-4.1725,-4.1747,-4.1799,-4.1875,-4.1921,-4.2011,-4.2083,-4.2151,-4.218,-4.217,-4.2172,-4.2189,-4.2185,-4.2173,-4.2177,-4.198,-4.2166,-4.2164,-4.2163,-4.2163,-4.2162,-4.1494,-4.1551,-4.1604,-4.1676,-4.1718,-4.1767,-4.1823,-4.1852,-4.1916,-4.1991,-4.1996,-4.2078,-4.2129,-4.2219,-4.2253,-4.2316,-4.2295,-4.2321,-4.2327,-4.2333,-4.2336,-4.2167,-4.2329,-4.2328,-4.2328,-4.2328,-4.2327,0,-4.1645,-4.1679,-4.1746,-4.1819,-4.1876,-4.1863,-4.1921,-4.1968,-4.204,-4.2089,-4.2148,-4.2234,-4.2304,-4.2341,-4.241,-4.2453,-4.2449,-4.247,-4.2465,-4.2471,-4.2353,-4.2329,-4.2471,-4.2471,-4.2471,-4.2471,-4.2471,-4.2471,-4.173,-4.1826,-4.1841,-4.1956,-4.1989,-4.207,-4.2103,-4.2148,-4.2187,-4.2284,-4.2342,-4.2367,-4.2411,-4.2483,-4.2546,-4.2555,-4.2579,-4.2602,-4.2608,-4.2495,-4.248,-4.2466,-4.2444,-4.2608,-4.2608,-4.2721,-4.2722,-4.2723]},{"header":{"parameterUnit":"m.s-1","parameterCategory":1,"la1":30.2991,"la2":30.254,"lo1":-89.0895,"lo2":-89.0444,"dy":0.0017,"dx":0.0017,"nx":28,"ny":28,"refTime":"2023-09-19T21:00:00:Z","depth":0,"parameterNumber":3,"parameterNumberName":"V-component_of_WINDS"},"data":[0,0,0,0,0,0,0,0,0,0,0,0,0,0,0,0,0,0,0,0,0,0,0,0,0,0,0,0,0,0,0,0,0,0,0,0,0,0,0,0,0,0,0,0,0,0,0,0,0,0,0,0,0,0,0,0,0,0,1.6461,1.6461,0,1.6429,1.6429,1.6428,1.6381,1.638,1.6379,1.6379,1.6343,1.6343,1.6343,0,0,0,0,0,0,0,0,0,0,0,0,0,1.6482,1.6482,1.6461,1.6461,1.646,1.6429,1.6429,1.6428,1.6381,1.638,1.6379,1.6378,1.6344,1.6343,1.6343,0,0,0,0,0,0,0,0,0,0,0,0,0,1.6464,1.6482,1.6461,1.6433,1.643,1.6429,1.6429,1.6428,1.6381,1.638,1.6379,1.6378,1.6344,1.6343,1.6343,1.6366,0,0,1.6342,1.6342,0,0,0,0,0,0,0,0,1.6465,1.6463,1.6438,1.6435,1.6432,1.6408,1.6423,1.6407,1.6382,1.64,1.6379,1.6377,1.6366,1.6364,1.636,1.6364,1.6363,1.6342,1.6342,1.6342,1.6342,0,0,0,0,0,0,0,1.6466,1.6464,1.6448,1.6438,1.6434,1.6422,1.6418,1.642,1.639,1.6398,1.6395,1.6392,1.6364,1.636,1.6359,1.6362,1.6342,1.6342,1.6342,1.6342,1.6384,1.6385,0,0,0,0,0,0,1.6472,1.6465,1.6449,1.6447,1.6446,1.6423,1.6418,1.6417,1.639,1.6385,1.6393,1.639,1.6362,1.6359,1.6358,1.6382,1.6342,1.6342,1.6342,1.6383,1.6384,1.6386,0,0,0,0,0,0,1.6472,1.6471,1.6451,1.6455,1.6452,1.6424,1.6422,1.6417,1.6413,1.6386,1.638,1.6395,1.636,1.6358,1.6364,1.638,1.6342,1.6341,1.6381,1.6383,1.6385,1.6432,0,0,0,0,0,0,1.6473,1.6471,1.6479,1.6456,1.6452,1.6458,1.6423,1.6417,1.6413,1.6409,1.6386,1.6381,1.6359,1.6365,1.6364,1.6379,1.6341,1.638,1.6382,1.6384,1.6428,1.6435,1.644,0,0,0,0,0,1.6474,1.6493,1.648,1.6478,1.6462,1.6459,1.6457,1.6432,1.6415,1.6423,1.6405,1.6382,1.6379,1.6366,1.6365,1.638,1.6378,1.6381,1.6384,1.6426,1.6434,1.644,0,0,0,0,0,0,1.6518,1.649,1.6475,1.6487,1.6476,1.6451,1.646,1.6441,1.6434,1.643,1.6399,1.6395,1.6405,1.6393,1.6379,1.6401,1.6375,1.6378,1.6407,1.6415,1.6421,1.6422,1.6341,0,0,0,0,0,1.653,1.653,1.6505,1.6519,1.6514,1.6489,1.6487,1.6469,1.6456,1.6451,1.6433,1.6422,1.6418,1.6416,1.6411,1.6428,1.6422,1.6437,1.6443,1.6448,1.645,1.6458,1.6465,1.6395,1.6395,1.6395,0,0,1.6552,1.6537,1.6539,1.6527,1.6516,1.6518,1.6485,1.6487,1.6488,1.6451,1.6455,1.6443,1.6428,1.6439,1.6444,1.643,1.6469,1.6452,1.6456,1.6455,1.6462,1.6468,1.6474,1.6397,1.6397,1.6396,0,0,1.6594,1.6584,1.6593,1.6584,1.6569,1.6552,1.6555,1.6534,1.6524,1.6529,1.6502,1.6502,1.6496,1.6487,1.6481,1.6523,1.65,1.6522,1.6552,1.656,1.6565,1.657,1.6584,1.6589,1.6525,1.6525,1.6525,0,1.6624,1.6625,1.6601,1.6605,1.6601,1.6569,1.6579,1.6571,1.6555,1.6552,1.6538,1.6531,1.6519,1.6528,1.6538,1.6535,1.6536,1.6523,1.6567,1.6571,1.6575,1.6588,1.6593,1.6527,1.6527,1.6527,1.6526,0,1.6663,1.6664,1.6674,1.666,1.6657,1.6664,1.6641,1.6641,1.6624,1.6609,1.6615,1.6599,1.6591,1.6592,1.6575,1.6599,1.6591,1.6573,1.6546,1.6585,1.6596,1.6601,1.6531,1.653,1.6529,1.6529,0,0,1.6729,1.6703,1.6707,1.67,1.6683,1.6683,1.6689,1.6682,1.6682,1.6674,1.6677,1.6675,1.6658,1.6652,1.6634,1.6641,1.6675,1.6622,1.6621,1.6631,1.6699,1.6712,1.6718,1.6661,1.6662,1.6663,1.67,0,1.6766,1.6775,1.6754,1.6768,1.6768,1.674,1.6745,1.6735,1.6722,1.6721,1.6706,1.6705,1.6683,1.6679,1.6685,1.6669,1.6687,1.6667,1.6663,1.6664,1.6666,1.6724,1.6737,1.6773,1.6704,1.6705,1.6706,0,1.6809,1.6803,1.6818,1.68,1.68,1.6805,1.6797,1.6797,1.6785,1.6775,1.677,1.675,1.6754,1.6731,1.6737,1.6724,1.6722,1.6714,1.6715,1.6712,1.6685,1.6721,1.6784,1.6788,1.6713,1.6712,1.6712,0,1.6854,1.685,1.6858,1.6854,1.6834,1.6838,1.683,1.6817,1.6815,1.6809,1.6807,1.6801,1.6797,1.6793,1.6773,1.6758,1.6781,1.6756,1.6772,1.6773,1.6776,1.6776,1.6838,1.6778,1.6778,1.6778,1.6778,0,1.6897,1.6906,1.6878,1.6883,1.6893,1.687,1.688,1.6869,1.6859,1.6861,1.6837,1.6839,1.6812,1.6812,1.6796,1.6803,1.6802,1.6794,1.6789,1.6795,1.6796,1.6791,1.6788,1.678,1.6779,1.6779,1.6779,0,1.6947,1.6929,1.6936,1.6917,1.6913,1.6921,1.6905,1.6909,1.6896,1.6899,1.6898,1.6877,1.6875,1.6855,1.6849,1.6838,1.6851,1.6842,1.6855,1.6851,1.6868,1.6866,1.6928,1.6934,1.6873,1.6873,1.6874,0,1.6975,1.6981,1.6964,1.6964,1.6957,1.6958,1.6955,1.6934,1.6932,1.6921,1.6926,1.6923,1.6918,1.6918,1.6901,1.6897,1.6887,1.6909,1.6886,1.6892,1.6885,1.6884,1.6885,1.6913,1.6914,1.6914,1.6915,0,1.7024,1.7016,1.7013,1.7009,1.7007,1.7002,1.6995,1.6997,1.6973,1.6973,1.6971,1.6968,1.6963,1.696,1.6953,1.6944,1.6925,1.6923,1.6926,1.6931,1.6937,1.6933,1.6866,1.6921,1.692,1.692,1.6919,1.6919,1.7063,1.7068,1.7057,1.7055,1.7049,1.7043,1.7046,1.7034,1.7032,1.7027,1.7014,1.7015,1.7004,1.6993,1.6987,1.6987,1.6975,1.698,1.6981,1.6982,1.6985,1.6939,1.6986,1.6985,1.6985,1.6985,1.6985,0,1.711,1.7102,1.7102,1.7094,1.7093,1.7077,1.707,1.707,1.7071,1.7063,1.706,1.7059,1.7057,1.7041,1.7037,1.704,1.7032,1.704,1.7038,1.7036,1.6996,1.6993,1.7047,1.7047,1.7047,1.7047,1.7047,1.7047,1.7135,1.7142,1.7132,1.7136,1.7128,1.7129,1.7126,1.7121,1.7115,1.7115,1.7113,1.7104,1.7093,1.7088,1.7085,1.7081,1.708,1.7091,1.7083,1.7045,1.7039,1.7033,1.703,1.7091,1.7091,1.7123,1.7124,1.7124]}]]